This demonstration page uses our WeatherBlox Daily Observations layout. Learn more.

Left ArrowRight Arrow

Hourly Observations for April 8, 2015

Temp ( °F °C ) Dew Point ( °F °C ) Humidity (%) Winds ( mph kmh ) Pressure ( in mb ) Visibility ( mi km ) Precip ( " mm )
6:30 am 06:30 Mostly Cloudy with Mist and Fog 55 13 55 13 100 100 S 5 7 29.97 1015 4 6 N/A
6:55 am 06:55 Mostly Cloudy with Mist and Fog 57 14 55 13 94 94 S 7 11 29.97 1015 5 8 N/A
7:48 am 07:48 Mostly Cloudy with Mist and Fog 57 14 55 13 94 94 S 8 13 29.97 1015 4 6 N/A
8:47 am 08:47 Cloudy with Light Rain 59 15 57 14 94 94 S 12 19 29.97 1015 3 5 N/A
9:30 am 09:30 Cloudy with Light Rain 59 15 57 14 94 94 SW 7 11 30.00 1016 3 5 N/A
9:39 am 09:39 Cloudy with Thunderstorms 59 15 57 14 94 94 NW 24 39 30.06 1018 2 2 N/A
9:53 am 09:53 Cloudy with Thunderstorms 57 14 55 13 94 94 NW 13 20 30.03 1017 3 5 N/A
10:05 am 10:05 Cloudy with Light Rain 57 14 55 13 94 94 S 5 7 30.03 1017 5 8 N/A
10:24 am 10:24 Cloudy with Light Rain 57 14 55 13 94 94 WSW 6 9 30.03 1017 10 16 N/A
10:45 am 10:45 Cloudy 57 14 55 13 94 94 SSE 8 13 30.03 1017 10 16 N/A
11:52 am 11:52 Cloudy 59 15 55 13 88 88 S 5 7 30.03 1017 10 16 N/A
12:47 pm 12:47 Cloudy 61 16 57 14 88 88 SSE 9 15 29.97 1015 10 16 N/A
1:52 pm 13:52 Cloudy 64 18 57 14 78 78 SE 8 13 30.00 1016 10 16 N/A
2:55 pm 14:55 Mostly Cloudy 66 19 57 14 73 73 SSE 9 15 29.94 1014 10 16 N/A
3:55 pm 15:55 Mostly Cloudy 70 21 63 17 78 78 S 8 13 29.91 1013 10 16 N/A
4:50 pm 16:50 Cloudy with Thunderstorms 66 19 61 16 83 83 S 9 15 29.91 1013 10 16 N/A
5:50 pm 17:50 Cloudy with Light Rain 63 17 59 15 88 88 SSE 16 26 29.85 1011 10 16 N/A
6:55 pm 18:55 Partly Cloudy 63 17 59 15 88 88 N 5 7 29.94 1014 10 16 N/A
7:50 pm 19:50 Mostly Cloudy 63 17 59 15 88 88 E 3 6 29.94 1014 10 16 N/A
9:50 pm 21:50 Mostly Clear 59 15 57 14 94 94 ESE 9 15 29.94 1014 10 16 N/A

Powered by AerisWeather